Regional Weather Roundup
Issued by NWS

Home | Current Version | Previous Version | Graphics & Text | Print | Product List | Glossary On
Versions: 1 2 3 4 5 6 7 8 9 10 11 12 13 14 15 16 17 18 19 20 21 22 23 24 25 26 27 28 29 30 31 32 33 34 35 36 37 38 39 40 41 42 43 44 45 46 47 48 49 50
000
ASUS43 KLSX 270810
RWRMO

WEATHER SUMMARY FOR MISSOURI
NATIONAL WEATHER SERVICE SPRINGFIELD MO
300 AM CDT TUE JUN 27 2017

NOTE: "FAIR" INDICATES FEW OR NO CLOUDS BELOW 12,000 FEET WITH NO
       SIGNIFICANT WEATHER AND/OR OBSTRUCTIONS TO VISIBILITY.
       CURRENT SKY AND/OR WEATHER CONDITIONS ARE NOT AVAILABLE FOR
       CHILLICOTHE AND FARMINGTON.

MOZ001>031-035>038-043-044-053-054-270900-
...NORTHERN AND WESTERN MISSOURI...

CITY           SKY/WX    TMP DP  RH WIND       PRES   REMARKS
KANSAS CTY INT CLEAR     58  56  93 SE6       30.14F
KANSAS C DTWN  CLEAR     60  58  92 N3        30.14S
LEE`S SUMMIT   CLEAR     59  58  96 E5        30.15S
ST JOSEPH      FOG       54  54 100 CALM      30.14F VSB 1/2
CHILLICOTHE      N/A     56  55  97 CALM      30.16S
KIRKSVILLE     CLEAR     56  52  86 N6        30.16S

$$
MOZ066>068-077>081-088>096-101>105-270900-
...SOUTHWEST MISSOURI...

CITY           SKY/WX    TMP DP  RH WIND       PRES   REMARKS
SPRINGFIELD    CLOUDY    61  60  97 SE6       30.12F
JOPLIN         CLOUDY    64  63  96 NE3       30.09F
BRANSON        CLOUDY    59  57  94 CALM      30.13F

$$
MOZ032>034-039>042-045>050-055>058-069>072-270900-
...CENTRAL MISSOURI...

CITY           SKY/WX    TMP DP  RH WIND       PRES   REMARKS
COLUMBIA       CLEAR     56  56 100 N3        30.15S FOG
JEFFERSON CITY FOG       59  58  96 CALM      30.14F VSB 1/4
ROLLA          CLEAR     56  55  97 CALM      30.14F
SEDALIA        FOG       58  58 100 CALM      30.15F VSB 1
WARRENSBURG    FOG       55  54  94 CALM      30.15S VSB 1/4
OSAGE BEACH    PTCLDY    56  56 100 CALM      30.15F

$$
MOZ051-052-059>065-270900-
...EAST CENTRAL MISSOURI...

CITY           SKY/WX    TMP DP  RH WIND       PRES   REMARKS
ST LOUIS INTL  CLEAR     60  55  83 W5        30.14S
SPIRIT OF STL  FOG       55  55 100 CALM      30.14R VSB 3/4
ST CHARLES     CLEAR     58  56  93 CALM      30.13S

$$
MOZ072>076-082>087-097>100-106>115-270900-
...SOUTH CENTRAL AND SOUTHEAST MISSOURI...

CITY           SKY/WX    TMP DP  RH WIND       PRES   REMARKS
CAPE GIRARDEAU CLOUDY    61  57  87 W3        30.12R
FARMINGTON     CLEAR     57  54  89 NW5       30.15R
POPLAR BLUFF   CLOUDY    64  63  96 W5        30.13R
WEST PLAINS    CLOUDY    61  59  93 W5        30.15R

$$




USA.gov is the U.S. government's official web portal to all federal, state and local government web resources and services.